This is the latest recevied weather packets stored in our database for station/object K9NZF-1. If no packets are shown the sender has not sent any weather packets the latest 1 day(s).
| Time | Temp. | Humidity | Pressure | Rain* | Wind** | Luminosity | Snow |
|---|---|---|---|---|---|---|---|
| 1778087088 | 12.22° C | 64% | 1013.1 hPa | 0 mm | - | 294 W/m² | - |
| 1778086965 | 12.22° C | 64% | 1013.1 hPa | 0 mm | - | 302 W/m² | - |
| 1778086606 | 12.78° C | 60% | 1013.1 hPa | 0 mm | - | 274 W/m² | - |
| 1778086543 | 12.78° C | 60% | 1013.1 hPa | 0 mm | - | 279 W/m² | - |
| 1778086417 | 12.78° C | 60% | 1013.1 hPa | 0 mm | - | 330 W/m² | - |
| 1778086113 | 12.78° C | 61% | 1013 hPa | 0 mm | - | 445 W/m² | - |
| 1778085930 | 13.33° C | 63% | 1013 hPa | 0 mm | - | 406 W/m² | - |
| 1778085869 | 13.33° C | 66% | 1012.9 hPa | 0 mm | - | 450 W/m² | - |
| 1778085691 | 13.33° C | 60% | 1012.8 hPa | 0 mm | - | 478 W/m² | - |
| 1778085442 | 13.33° C | 60% | 1012.7 hPa | 0 mm | - | 519 W/m² | - |
| 1778085323 | 13.33° C | 62% | 1012.7 hPa | 0 mm | - | 508 W/m² | - |
| 1778085261 | 12.78° C | 62% | 1012.7 hPa | 0 mm | - | 1025 W/m² | - |
| 1778085136 | 12.78° C | 68% | 1012.7 hPa | 0 mm | - | 1025 W/m² | - |
| 1778085012 | 12.78° C | 63% | 1012.7 hPa | 0 mm | - | 1025 W/m² | - |
| 1778084890 | 12.78° C | 63% | 1012.9 hPa | 0 mm | - | 751 W/m² | - |
| 1778084831 | 12.78° C | 63% | 1013 hPa | 0 mm | - | 751 W/m² | - |
| 1778084709 | 12.78° C | 61% | 1013 hPa | 0 mm | - | 578 W/m² | - |
| 1778084460 | 12.78° C | 65% | 1013.2 hPa | 0 mm | - | 550 W/m² | - |
| 1778084271 | 12.22° C | 67% | 1013.1 hPa | 0 mm | - | 533 W/m² | - |
| 1778084147 | 12.22° C | 69% | 1013.1 hPa | 0 mm | - | 501 W/m² | - |
| 1778084087 | 12.22° C | 67% | 1013.1 hPa | 0 mm | - | 561 W/m² | - |
| 1778083966 | 12.22° C | 68% | 1013.1 hPa | 0 mm | - | 538 W/m² | - |
| 1778083785 | 12.22° C | 65% | 1013 hPa | 0 mm | - | 573 W/m² | - |
| 1778083725 | 12.22° C | 64% | 1013 hPa | 0 mm | - | 596 W/m² | - |
| 1778083604 | 12.22° C | 66% | 1013.1 hPa | 0 mm | - | 543 W/m² | - |
* Rain latest hour (hover to see other rain measurements)
** Current wind speed in m/s (hover to see current wind gust speed)